Location: ??????
(31.2056°N, 45.3906°E)
Time: 16:43:45
(UTC+00:00)

SL-16 R/B - Pass Details

Date: 09 April 2020
Orbit: 841 x 849 km, 71.0° (Epoch: 26 May)

Event Time Altitude Azimuth Distance (km) Brightness Sun altitude
Rises 23:23:22 0° 353° (N) 3,402 5.7 -37.9°
Reaches altitude 10° 23:26:11 10° 5° (N) 2,466 5.1 -37.4°
Maximum altitude 23:30:59 28° 63° (ENE) 1,540 4.0 -36.6°
Drops below altitude 10° 23:35:45 10° 121° (ESE) 2,460 4.8 -35.9°
Sets 23:38:32 0° 133° (SE) 3,393 5.4 -35.4°
